Weather History for KUTA - September, 2012

Change the Weather History Date:

Thursday, September 6, 2012

  Actual Average (KMEM) Record (KMEM)
Temperature  
Mean Temperature 86 °F 79 °F  
Max Temperature 98 °F 88 °F 103 °F (1925)
Min Temperature 73 °F 69 °F 51 °F (1953)
Degree Days  
Heating Degree Days 0 0  
Month to date heating degree days 0  
Since 1 July heating degree days 0  
Cooling Degree Days 20 14  
Month to date cooling degree days 86  
Year to date cooling degree days 1921  
Growing Degree Days 36 (Base 50)    
Moisture  
Dew Point 69 °F    
Average Humidity 61    
Maximum Humidity 84    
Minimum Humidity 30    
Precipitation  
Precipitation 0.00 in 0.09 in 0.97 in (1923)
Month to date precipitation 0.52  
Year to date precipitation 35.90  
Snow  
Snow 0.00 in 0.00 in - ()
Month to date snowfall 0.0  
Since 1 July snowfall 0.0  
Since 1 September snowfall 0.0  
Snow Depth -    
Sea Level Pressure  
Sea Level Pressure 29.90 in    
Wind  
Wind Speed 7 mph (SE)    
Max Wind Speed 21 mph    
Max Gust Speed 26 mph    
Visibility 10 miles    
Events Rain , Thunderstorm    
T = Trace of Precipitation, MM = Missing Value Source: NWS Daily Summary

Daily Weather History Graph

Daily Weather History Graph

Search for Another Location

Airport or City:

Trip Planner

Search our weather history database for the weather conditions in past years. The results will help you decide how hot, cold, wet, or windy it might be!

Date:

Astronomy

Sep. 06, 2012 Rise Set
Actual Time 6:38 AM CDT 7:20 PM CDT
Civil Twilight 6:12 AM CDT 7:45 PM CDT
Nautical Twilight 5:42 AM CDT 8:15 PM CDT
Astronomical Twilight 5:11 AM CDT 8:46 PM CDT
Moon 10:48 PM CDT (9/6) 12:20 PM CDT (9/6)
Length of Visible Light 13h 32m
Length of Day
12h 41m
Waning Gibbous, 67% of the Moon is Illuminated
Sep 6
Waning Gibbous
Sep 8
Last Quarter
Sep 15
New
Sep 22
First Quarter
Sep 29
Full

Hourly Weather History & Observations

Time (CDT) Temp. Heat Index Dew Point Humidity Pressure Visibility Wind Dir Wind Speed Gust Speed Precip Events Conditions
12:15 AM 80.6 °F 85.4 °F 73.4 °F 79% 29.87 in 10.0 mi East 6.9 mph - N/A   Scattered Clouds
12:35 AM 80.6 °F 85.4 °F 73.4 °F 79% 29.87 in 10.0 mi ESE 4.6 mph - N/A   Clear
12:55 AM 80.6 °F 86.2 °F 75.2 °F 84% 29.87 in 10.0 mi ESE 6.9 mph - N/A   Clear
1:15 AM 78.8 °F - 73.4 °F 83% 29.87 in 10.0 mi ESE 8.1 mph - N/A   Scattered Clouds
1:55 AM 78.8 °F - 71.6 °F 78% 29.87 in 10.0 mi SE 4.6 mph - N/A   Scattered Clouds
2:35 AM 78.8 °F - 71.6 °F 78% 29.88 in 10.0 mi SE 4.6 mph - N/A   Clear
2:55 AM 78.8 °F - 73.4 °F 83% 29.88 in 10.0 mi SSE 8.1 mph - N/A   Scattered Clouds
3:35 AM 78.8 °F - 73.4 °F 83% 29.88 in 10.0 mi SSE 9.2 mph - N/A   Scattered Clouds
3:55 AM 78.8 °F - 73.4 °F 83% 29.89 in 10.0 mi SSE 10.4 mph - N/A   Clear
4:15 AM 78.8 °F - 73.4 °F 83% 29.88 in 10.0 mi SSE 9.2 mph - N/A   Clear
4:35 AM 78.8 °F - 73.4 °F 83% 29.89 in 10.0 mi SSE 9.2 mph - N/A   Clear
4:55 AM 78.8 °F - 73.4 °F 83% 29.89 in 10.0 mi SSE 8.1 mph - N/A   Clear
5:15 AM 78.8 °F - 73.4 °F 83% 29.89 in 10.0 mi SSE 9.2 mph - N/A   Clear
5:35 AM 78.8 °F - 73.4 °F 83% 29.89 in 10.0 mi SSE 9.2 mph - N/A   Clear
5:55 AM 77.0 °F - 71.6 °F 83% 29.90 in 10.0 mi SSE 8.1 mph - N/A   Clear
6:15 AM 77.0 °F - 71.6 °F 83% 29.90 in 10.0 mi South 8.1 mph - N/A   Clear
6:35 AM 77.0 °F - 71.6 °F 83% 29.91 in 10.0 mi South 8.1 mph - N/A   Clear
6:55 AM 77.0 °F - 71.6 °F 83% 29.91 in 10.0 mi South 8.1 mph - N/A   Clear
7:15 AM 77.0 °F - 71.6 °F 83% 29.92 in 10.0 mi SSE 5.8 mph - N/A   Clear
7:35 AM 77.0 °F - 71.6 °F 83% 29.92 in 10.0 mi SSE 8.1 mph - N/A   Clear
7:55 AM 78.8 °F - 71.6 °F 78% 29.92 in 10.0 mi South 6.9 mph - N/A   Clear
8:15 AM 80.6 °F 84.6 °F 71.6 °F 74% 29.92 in 10.0 mi South 9.2 mph - N/A   Clear
8:35 AM 82.4 °F 87.2 °F 71.6 °F 70% 29.92 in 10.0 mi South 9.2 mph - N/A   Clear
8:55 AM 82.4 °F 87.2 °F 71.6 °F 70% 29.93 in 10.0 mi South 10.4 mph - N/A   Clear
9:15 AM 84.2 °F 89.6 °F 71.6 °F 66% 29.93 in 10.0 mi South 12.7 mph - N/A   Clear
9:35 AM 86.0 °F 91.8 °F 71.6 °F 62% 29.93 in 7.0 mi South 9.2 mph - N/A   Scattered Clouds
9:55 AM 87.8 °F 93.8 °F 71.6 °F 58% 29.93 in 10.0 mi SSE 9.2 mph - N/A   Scattered Clouds
10:15 AM 89.6 °F 96.2 °F 71.6 °F 55% 29.94 in 10.0 mi South 8.1 mph - N/A   Clear
10:35 AM 89.6 °F 96.2 °F 71.6 °F 55% 29.94 in 10.0 mi SSW 6.9 mph - N/A   Clear
10:55 AM 89.6 °F 96.2 °F 71.6 °F 55% 29.94 in 10.0 mi South 5.8 mph - N/A   Clear
11:15 AM 91.4 °F 98.4 °F 71.6 °F 52% 29.94 in 10.0 mi SW 4.6 mph - N/A   Clear
11:35 AM 91.4 °F 98.4 °F 71.6 °F 52% 29.94 in 10.0 mi Calm Calm - N/A   Clear
11:55 AM 91.4 °F 98.4 °F 71.6 °F 52% 29.94 in 10.0 mi West 3.5 mph - N/A   Clear
12:15 PM 95.0 °F 103.2 °F 71.6 °F 47% 29.93 in 10.0 mi ESE 3.5 mph - N/A   Scattered Clouds
12:35 PM 95.0 °F 101.3 °F 69.8 °F 44% 29.93 in 10.0 mi SE 6.9 mph - N/A   Scattered Clouds
12:55 PM 95.0 °F 101.3 °F 69.8 °F 44% 29.92 in 10.0 mi ESE 6.9 mph - N/A   Scattered Clouds
1:15 PM 96.8 °F 103.1 °F 69.8 °F 41% 29.92 in 10.0 mi ESE 5.8 mph - N/A   Scattered Clouds
1:35 PM 96.8 °F 101.8 °F 68.0 °F 39% 29.91 in 10.0 mi East 4.6 mph - N/A   Clear
1:55 PM 96.8 °F 101.8 °F 68.0 °F 39% 29.90 in 10.0 mi ESE 3.5 mph - N/A   Scattered Clouds
2:15 PM 96.8 °F 101.8 °F 68.0 °F 39% 29.90 in 10.0 mi ESE 5.8 mph - N/A   Scattered Clouds
2:35 PM 98.6 °F 104.1 °F 68.0 °F 37% 29.89 in 10.0 mi Calm Calm - N/A   Scattered Clouds
2:55 PM 98.6 °F 101.0 °F 64.4 °F 32% 29.88 in 10.0 mi ESE 5.8 mph - N/A   Scattered Clouds
3:15 PM 98.6 °F 101.0 °F 64.4 °F 32% 29.87 in 10.0 mi SSE 5.8 mph - N/A   Scattered Clouds
3:35 PM 98.6 °F 100.0 °F 62.6 °F 30% 29.87 in 10.0 mi South 4.6 mph - N/A   Clear
3:55 PM 98.6 °F 101.0 °F 64.4 °F 32% 29.86 in 10.0 mi South 3.5 mph - N/A   Clear
4:15 PM 98.6 °F 101.0 °F 64.4 °F 32% 29.85 in 10.0 mi ESE 5.8 mph - N/A   Scattered Clouds
4:35 PM 96.8 °F 99.0 °F 64.4 °F 34% 29.85 in 10.0 mi Calm Calm - N/A   Scattered Clouds
4:55 PM 98.6 °F 101.0 °F 64.4 °F 32% 29.85 in 10.0 mi ESE 4.6 mph - N/A   Clear
5:15 PM 98.6 °F 101.0 °F 64.4 °F 32% 29.84 in 10.0 mi ESE 6.9 mph - N/A   Clear
5:35 PM 98.6 °F 101.0 °F 64.4 °F 32% 29.84 in 10.0 mi SE 5.8 mph - N/A   Clear
5:55 PM 98.6 °F 101.0 °F 64.4 °F 32% 29.85 in 10.0 mi South 5.8 mph - N/A   Scattered Clouds
6:15 PM 95.0 °F 101.3 °F 69.8 °F 44% 29.86 in 10.0 mi SSE 13.8 mph - N/A   Scattered Clouds
6:35 PM 93.2 °F 100.5 °F 71.6 °F 49% 29.87 in 10.0 mi South 13.8 mph - N/A   Scattered Clouds
6:55 PM 91.4 °F 96.8 °F 69.8 °F 49% 29.87 in 10.0 mi South 11.5 mph - N/A   Scattered Clouds
7:15 PM 91.4 °F 96.8 °F 69.8 °F 49% 29.87 in 10.0 mi SSE 8.1 mph - N/A   Clear
7:35 PM 89.6 °F 94.7 °F 69.8 °F 52% 29.88 in 10.0 mi SSW 6.9 mph - N/A   Scattered Clouds
7:55 PM 87.8 °F 90.4 °F 66.2 °F 49% 29.87 in 10.0 mi SSW 6.9 mph - N/A Thunderstorm Scattered Clouds
8:15 PM 87.8 °F 89.4 °F 64.4 °F 46% 29.88 in 10.0 mi Calm Calm - N/A Thunderstorm Scattered Clouds
8:35 PM 86.0 °F 89.4 °F 68.0 °F 55% 29.90 in 10.0 mi North 4.6 mph - N/A Thunderstorm Clear
8:55 PM 82.4 °F 83.9 °F 64.4 °F 54% 29.90 in 10.0 mi NNE 16.1 mph 21.9 mph N/A Thunderstorm Scattered Clouds
9:15 PM 78.8 °F - 62.6 °F 57% 29.91 in 10.0 mi North 8.1 mph - N/A Thunderstorm Unknown
9:35 PM 78.8 °F - 62.6 °F 57% 29.92 in 10.0 mi North 13.8 mph - N/A Thunderstorm Clear
9:55 PM 78.8 °F - 60.8 °F 54% 29.93 in 10.0 mi NE 12.7 mph - N/A   Scattered Clouds
10:15 PM 75.2 °F - 64.4 °F 69% 29.93 in 7.0 mi ENE 20.7 mph 26.5 mph N/A   Scattered Clouds
10:35 PM 73.4 °F - 68.0 °F 83% 29.95 in 10.0 mi ENE 13.8 mph - N/A Rain Light Rain
10:55 PM 73.4 °F - 68.0 °F 83% 29.96 in 10.0 mi East 9.2 mph - N/A   Mostly Cloudy
11:15 PM 73.4 °F - 68.0 °F 83% 29.96 in 10.0 mi East 12.7 mph 17.3 mph N/A   Scattered Clouds
11:35 PM 73.4 °F - 66.2 °F 78% 29.95 in 10.0 mi ESE 16.1 mph 23.0 mph N/A Thunderstorm Mostly Cloudy
11:55 PM 73.4 °F - 68.0 °F 83% 29.96 in 10.0 mi East 10.4 mph 23.0 mph N/A Rain , Thunderstorm Light Thunderstorms and Rain